sat.trackr.live / text

‹ back to catalog

QIANFAN-125

NORAD 68652 · 2026-075S

PAYLOAD ACTIVE UNKNOWN

§ Identity

Operator
Country
PRC
Launch date
2026-04-07
Launch site
WSC
Launch vehicle
Mass (kg)
RCS (m²)

External: N2YO · Heavens-Above · Gunter

§ Orbital elements

Epoch: 2026-09-19T22:13:58.660032Z

Period
106.59 min
Inclination
88.9863°
Eccentricity
0.0002254
Mean motion
13.51023932 rev/d
Perigee alt
1,066.8 km
Apogee alt
1,070.2 km
Semi-major
7,446.6 km
B*
3.5388e-5
RAAN
311.3230°
Arg perigee
97.6273°
Mean anomaly
262.5134°
Rev number
2,260

§ Raw data

QIANFAN-1251 68652U 26075S   26262.92637338  .00000035  00000+0  35388-4 0  99942 68652  88.9863 311.3230 0002254  97.6273 262.5134 13.51023932 22603

JSON: /api/v1/satellites/68652 · /tle

For live sub-satellite position, see the globe view (requires WebGL).

§ Visibility from observer

Set your observer location to see the next 7 days of passes ≥ 10°. The values pass through the URL so the page stays shareable.

No JS? Fill the form by hand. The geolocation button needs JavaScript.